Location: Newark
(40.7360°N, 74.1730°W)
Time: 14:04:18
(UTC-04:00)

ISS - All Passes

Search period start: 05 May 2016 00:00
Search period end: 15 May 2016 00:00
Orbit: 402 x 405 km, 51.6° (Epoch: 05 May)

Date Brightness Start Highest point End Pass type
(mag) Time Alt. Az. Time Alt. Az. Time Alt. Az.
05 May - 05:35:25 10° SSE 05:37:12 14° SE 05:38:59 10° E daylight
05 May - 07:10:04 10° WSW 07:13:17 63° NW 07:16:33 10° NE daylight
05 May - 08:48:05 10° WNW 08:50:15 16° NNW 08:52:26 10° NNE daylight
05 May - 10:26:12 10° NNW 10:27:45 13° N 10:29:18 10° NNE daylight
05 May - 12:02:11 10° NW 12:05:03 27° NNE 12:07:54 10° E daylight
05 May - 13:38:29 10° WNW 13:41:36 41° SW 13:44:42 10° SSE daylight
06 May - 06:17:33 10° SW 06:20:46 67° SE 06:24:01 10° ENE daylight
06 May - 07:54:53 10° WNW 07:57:30 21° NNW 08:00:06 10° NNE daylight
06 May - 09:33:27 10° NNW 09:34:53 12° N 09:36:20 10° NNE daylight
06 May - 11:09:52 10° NNW 11:12:19 19° NNE 11:14:47 10° ENE daylight
06 May - 12:45:51 10° NW 12:49:08 84° SW 12:52:24 10° SE daylight
07 May - 05:25:22 10° SSW 05:28:20 33° SE 05:31:18 10° ENE daylight
07 May - 07:01:49 10° W 07:04:47 31° NNW 07:07:45 10° NE daylight
07 May - 08:40:23 10° NW 08:42:01 13° N 08:43:41 10° NNE daylight
07 May - 10:17:29 10° NNW 10:19:32 15° NNE 10:21:33 10° NE daylight
07 May - 11:53:22 10° NW 11:56:35 51° NNE 11:59:46 10° ESE daylight
07 May - 13:30:31 10° W 13:32:46 17° SW 13:35:00 10° S daylight
08 May - 04:33:44 10° S 04:35:58 17° SE 04:38:11 10° E visible
08 May - 06:08:57 10° WSW 06:12:09 52° NNW 06:15:21 10° NE daylight
08 May - 07:47:08 10° NW 07:49:11 15° NNW 07:51:13 10° NNE daylight
08 May - 09:25:02 10° NNW 09:26:41 13° N 09:28:19 10° NE daylight
08 May - 11:00:58 10° NW 11:03:56 31° NNE 11:06:53 10° E daylight
08 May - 12:37:24 10° WNW 12:40:23 33° SW 12:43:21 10° SSE daylight
09 May - 05:16:19 10° SW 05:19:34 83° SE 05:22:51 10° NE visible
09 May - 06:53:54 10° WNW 06:56:22 19° NNW 06:58:51 10° NNE daylight
09 May - 08:32:21 10° NNW 08:33:48 12° N 08:35:15 10° NNE daylight
09 May - 10:08:36 10° NNW 10:11:11 21° NNE 10:13:48 10° ENE daylight
09 May - 11:44:40 10° WNW 11:47:56 68° SW 11:51:09 10° SE daylight
10 May - 04:23:59 10° SSW 04:27:04 41° SE 04:30:10 10° ENE visible
10 May - 06:00:46 10° W 06:03:37 27° NNW 06:06:28 10° NE daylight
10 May - 07:39:21 10° NW 07:40:54 13° N 07:42:28 10° NNE daylight
10 May - 09:16:13 10° NNW 09:18:23 16° NNE 09:20:34 10° ENE daylight
10 May - 10:52:07 10° NW 10:55:22 62° NE 10:58:35 10° ESE daylight
10 May - 12:29:39 10° W 12:31:28 14° SW 12:33:16 10° SSW daylight
11 May - 03:32:07 10° S 03:34:39 21° SE 03:37:12 10° E visible
11 May - 05:07:47 10° WSW 05:10:55 43° NNW 05:14:04 10° NE visible
11 May - 06:46:07 10° NW 06:48:02 14° NNW 06:49:56 10° NNE daylight
11 May - 08:23:47 10° NNW 08:25:32 14° N 08:27:17 10° NE daylight
11 May - 09:59:39 10° NW 10:02:43 35° NNE 10:05:46 10° E daylight
11 May - 11:36:16 10° WNW 11:39:05 27° SW 11:41:54 10° SSE daylight
12 May - 02:41:23 10° SE 02:42:18 11° SE 02:43:13 10° ESE visible
12 May - 04:15:02 10° WSW 04:18:18 80° NW 04:21:35 10° NE visible
12 May - 05:52:50 10° WNW 05:55:10 18° NNW 05:57:30 10° NNE daylight
12 May - 07:31:09 10° NNW 07:32:38 12° N 07:34:07 10° NNE daylight
12 May - 09:07:16 10° NNW 09:10:00 24° NNE 09:12:42 10° E daylight
12 May - 10:43:25 10° WNW 10:46:38 53° SW 10:49:48 10° SE daylight
13 May - 03:22:35 10° SW 03:25:45 51° SE 03:28:56 10° ENE visible
13 May - 04:59:37 10° W 05:02:22 24° NNW 05:05:07 10° NNE visible
13 May - 06:38:13 10° NNW 06:39:43 12° N 06:41:12 10° NNE daylight
13 May - 08:14:52 10° NNW 08:17:10 18° NNE 08:19:29 10° ENE daylight
13 May - 09:50:48 10° NW 09:54:04 77° NE 09:57:19 10° ESE daylight
13 May - 11:28:58 10° WSW 11:30:05 11° SW 11:31:12 10° SSW daylight
14 May - 02:30:30 10° SSW 02:33:17 26° SE 02:36:03 10° ENE visible
14 May - 04:06:34 10° W 04:09:38 36° NNW 04:12:42 10° NE visible
14 May - 05:45:01 10° NW 05:46:48 14° N 05:48:35 10° NNE daylight
14 May - 07:22:25 10° NNW 07:24:18 14° N 07:26:11 10° NE daylight
14 May - 08:58:17 10° NW 09:01:25 41° NNE 09:04:32 10° ESE daylight
14 May - 10:35:06 10° W 10:37:42 22° SW 10:40:17 10° S daylight
